Find Astrocast-0105

NORAD ID: 47517 Int'l Des: 2021-006 Owner: ACAST Country: CH operational
LEOCIRCULARRETROGRADESSO

リアルタイム位置

3D地球を読み込み中...

Astrocast-0105について

説明を読み込み中...

次回通過

Passes for default location (London). Set your location on the main map for personalized predictions.

高度履歴

Loading altitude history...

軌道要素

1 47517U 21006DH 26106.67211102 .00062036 00000-0 54202-3 0 9991
2 47517 97.2165 168.5341 0002042 118.8798 241.2669 15.68757199291239
Epoch: Apr 16, 2026 • Age: 13 hours

現在のステータス

高度 364.3 km
速度 7.69 km/s
衛星直下点 23.51°N, 71.26°E
打ち上げ日 Jan 24, 2021
運用期間 5.2 years
タイプ other

技術仕様

分類 Payload
質量 5.00 kg
乾燥質量 5.00 kg
総質量 5.00 kg
長さ 0.30 m
直径 0.10 m
スパン 0.30 m
形状 Box
製造者 ACAST
バスタイプ Cubesat 3U
フェーズステータス In Orbit
所有者/国 ACAST/CH

Most Searched